STARLINK-38063, 69979

Orbit data source: Space-Track

STARLINK-38063, 69979 is a payload satellite owned by SpaceX/Seattle (US) in SSO that was launched on Sat, 11 Jul 2026 UTC via an FALCON 9 launch vehicle from the Air Force Western Test Range (AFWTR). Payload-class satellites include a variety of spacecraft equipped with specific instruments for various scientific and technological missions. These include communications satellites like Starlink; space stations such as the ISS; scientific satellites like the Hubble; Earth observation satellites from companies like Planet Labs, Umbra, and HawkEye 360; GPS; miniature CubeSats for education and research; and military/defense satellites.

Loading next visibility...
Identifier
69979, 2026-159E
Orbit
SSO
Country
Flag of USUS
Related business
Manufacturer
SpaceX/Seattle
Mission
Operational spacecraft
Bus & Motor
STARLINK V2MO, Unknown motor
Mass
575 kg wet, ~530 kg dry
Launch date (UTC)
2026-07-11 (1 month ago)
Launch vehicle
FALCON 9
Launch site
Air Force Western Test Range (AFWTR)
Object type
Payload
Rocket body
Debris
Shape & HBR
BOX + PAN, 17.7 m
Radar Cross Section
Large (>1 m²)

Expand to show TLE details & history
Last TLE update: 12 hours ago

TLE from 12 hours ago
0 STARLINK-38063
1 69979U 26159E   26228.54641674  .00128580  00000-0  85011-3 0  9992
2 69979  97.2851  68.9289 0001292  62.1821 297.9575 15.75187234  6968
Epoch: 2026-08-16T13:06Z
TLE epoch observation values (Epoch: 2026-08-16T13:06:50.406Z)
Latitude
-0.00002°
Longitude
-92.72251°
Altitude
346.86 km
Speed
7.701 km/s
True Right ascension
04h 35m 42s
True Declination
0° 00' 00"
Sunlit
Object was in daylight at epoch
Visualization orbit readout
Latitude
Unknown
Longitude
Unknown
Altitude
Unknown
Speed
Unknown
Apparent Right ascension
Unknown
Apparent Declination
Unknown
Sunlit
N/A
Visualization observer readout
Local Sidereal Time
15:50:21
Azimuth
Unknown
Elevation
Unknown
Doppler factor
Unknown
Orbital elements
Apogee altitude
341.854 km
Perigee altitude
340.118 km
Semi-major axis
6,719.123 km
Eccentricity
0.00013
Inclination
97.2851°
RAAN
68.9289°
Arg. of periapsis
62.1821°
True anomaly
297.94442°
Mean anomaly
297.9575°
Eccentric anomaly
297.95096°
Mean motion
3.94071 °/min
Orbital period
91.35 mins
BSTAR
0.00085011
Loading maneuver chart data...
Computing Atmospheric mass density...
Loading historical data...
Loading historical data...
Loading historical data...
Loading historical data...
Loading historical data...
Loading historical data...
Loading historical data...

Documentation

Showing up to 5 results
|